Weather History for KFHU - January, 2014

Change the Weather History Date:

Wednesday, January 29, 2014

  Actual Average Record
Temperature  
Mean Temperature 55 °F -  
Max Temperature 69 °F 59 °F 86 °F (1998)
Min Temperature 41 °F 37 °F 24 °F (1990)
Degree Days  
Heating Degree Days 10    
Growing Degree Days 5 (Base 50)    
Moisture  
Dew Point 10 °F    
Average Humidity 20    
Maximum Humidity 36    
Minimum Humidity 6    
Precipitation  
Precipitation 0.00 in - - ()
Sea Level Pressure  
Sea Level Pressure 30.02 in    
Wind  
Wind Speed 3 mph (WSW)    
Max Wind Speed 10 mph    
Max Gust Speed -    
Visibility 10 miles    
Events      
Averages and records for this station are not official NWS values.
T = Trace of Precipitation, MM = Missing Value Source: NWS Daily Summary

Daily Weather History Graph

Daily Weather History Graph

Search for Another Location

Airport or City:

Trip Planner

Search our weather history database for the weather conditions in past years. The results will help you decide how hot, cold, wet, or windy it might be!

Date:

Astronomy

Jan. 29, 2014 Rise Set
Actual Time 7:16 AM MST 5:53 PM MST
Civil Twilight 6:50 AM MST 6:19 PM MST
Nautical Twilight 6:21 AM MST 6:48 PM MST
Astronomical Twilight 5:52 AM MST 7:17 PM MST
Moon 5:55 AM MST (1/29) 4:56 PM MST (1/29)
Length of Visible Light 11h 28m
Length of Day
10h 37m
Waning Crescent, 2% of the Moon is Illuminated
Jan 29
Waning Crescent
Jan 30
New
Feb 6
First Quarter
Feb 14
Full
Feb 22
Last Quarter

Hourly Weather History & Observations

Time (MST) Temp. Windchill Dew Point Humidity Pressure Visibility Wind Dir Wind Speed Gust Speed Precip Events Conditions
12:55 AM 42.8 °F - 15.8 °F 34% 30.07 in 10.0 mi Calm Calm - N/A   Clear
1:55 AM 42.8 °F 41.1 °F 15.8 °F 34% 30.04 in 10.0 mi South 3.5 mph - N/A   Clear
2:55 AM 44.6 °F - 15.8 °F 31% 30.05 in 10.0 mi Calm Calm - N/A   Clear
3:55 AM 42.8 °F 38.6 °F 17.6 °F 36% 30.04 in 10.0 mi South 6.9 mph - N/A   Clear
4:55 AM 42.8 °F 38.0 °F 15.8 °F 34% 30.05 in 10.0 mi SSW 8.1 mph - N/A   Clear
5:55 AM 41.0 °F 38.0 °F 15.8 °F 36% 30.04 in 10.0 mi South 4.6 mph - N/A   Clear
6:55 AM 41.0 °F 38.0 °F 15.8 °F 36% 30.08 in 10.0 mi SW 4.6 mph - N/A   Partly Cloudy
7:55 AM 44.6 °F 42.2 °F 15.8 °F 31% 30.09 in 10.0 mi WSW 4.6 mph - N/A   Scattered Clouds
8:55 AM 53.6 °F - 15.8 °F 22% 30.08 in 10.0 mi Calm Calm - N/A   Partly Cloudy
9:55 AM 55.4 °F - 14.0 °F 20% 30.09 in 10.0 mi Calm Calm - N/A   Partly Cloudy
10:55 AM 57.2 °F - 12.2 °F 17% 30.08 in 10.0 mi NNE 3.5 mph - N/A   Partly Cloudy
11:55 AM 62.6 °F - 12.2 °F 14% 30.06 in 10.0 mi NE 6.9 mph - N/A   Partly Cloudy
12:55 PM 64.4 °F - 10.4 °F 12% 30.02 in 10.0 mi Calm Calm - N/A   Scattered Clouds
1:55 PM 66.2 °F - 3.2 °F 8% 29.99 in 10.0 mi Variable 3.5 mph - N/A   Mostly Cloudy
2:55 PM 66.2 °F - 1.4 °F 8% 29.96 in 10.0 mi Calm Calm - N/A   Mostly Cloudy
3:55 PM 69.8 °F - -0.4 °F 6% 29.94 in 10.0 mi NW 8.1 mph - N/A   Mostly Cloudy
4:55 PM 68.0 °F - 1.4 °F 7% 29.95 in 10.0 mi NNW 8.1 mph - N/A   Mostly Cloudy
5:55 PM 62.6 °F - 5.0 °F 10% 29.97 in 10.0 mi NW 3.5 mph - N/A   Mostly Cloudy
6:55 PM 55.4 °F - 8.6 °F 15% 30.01 in 10.0 mi WSW 10.4 mph - N/A   Mostly Cloudy
7:55 PM 55.4 °F - 6.8 °F 14% 30.01 in 10.0 mi WSW 9.2 mph - N/A   Mostly Cloudy
8:55 PM 55.4 °F - 6.8 °F 14% 29.97 in 10.0 mi WSW 8.1 mph - N/A   Mostly Cloudy
9:55 PM 53.6 °F - 6.8 °F 15% 29.97 in 10.0 mi SW 5.8 mph - N/A   Mostly Cloudy
10:55 PM 51.8 °F - 8.6 °F 18% 29.97 in 10.0 mi Calm Calm - N/A   Mostly Cloudy
11:55 PM 51.8 °F - 8.6 °F 18% 29.95 in 10.0 mi Calm Calm - N/A   Overcast